Location: Adrasan
(36.3319°N, 30.4314°E)
Time: 08:09:22
(UTC+00:00)

OAO 2 Rocket - Visible Passes

Search period start: 26 May 2024 00:00
Search period end: 05 June 2024 00:00
Orbit: 672 x 741 km, 35.0° (Epoch: 25 May)

Date Brightness Start Highest point End Pass type
(mag) Time Alt. Az. Time Alt. Az. Time Alt. Az.
26 May 5.3 19:04:40 10° WSW 19:07:32 15° SSW 19:08:22 14° SSW visible
27 May 5.0 18:04:26 10° W 18:08:27 22° SSW 18:12:15 11° SSE visible
29 May 5.6 17:51:29 10° WSW 17:54:08 14° SW 17:56:48 10° S visible
